Location: ??????
(33.3472°N, 35.4764°E)
Time: 01:23:46
(UTC+00:00)

CZ-2C R/B - Pass Details

Date: 21 August 2019
Orbit: 667 x 785 km, 98.1° (Epoch: 19 September)

Event Time Altitude Azimuth Distance (km) Brightness Sun altitude
Rises 01:36:41 0° 21° (NNE) 3,013 6.4 -17.8°
Reaches altitude 10° 01:39:00 10° 28° (NNE) 2,099 5.6 -17.4°
Maximum altitude 01:43:20 42° 99° (E) 963 3.4 -16.6°
Drops below altitude 10° 01:47:42 10° 170° (S) 2,118 4.6 -15.8°
Sets 01:50:03 0° 177° (S) 3,045 5.4 -15.3°
